EW6762 Weather Reports


Display with metric or nautical units.
time (UTC)temp
F
wind
direction
speed
MPH
gust
MPH
rain 1hr
in
rain 24hr
in
rain mn
in
humidity
%
barometer
mb
20260902112323 79 242 2.0 4.0 0.00 0.00 0.00 90 1019.1
20260902111342 79 257 2.0 4.0 0.00 0.00 0.00 89 1019.1
20260902110313 79 188 2.0 7.0 0.00 0.00 0.00 89 1018.8
20260902105333 79 259 3.0 4.0 0.00 0.00 0.00 89 1018.8
20260902104330 79 242 3.0 5.0 0.00 0.00 0.00 89 1018.7
20260902103350 80 251 2.0 5.0 0.00 0.00 0.00 88 1018.7
20260902102332 80 201 2.0 5.0 0.00 0.00 0.00 88 1018.7
20260902101324 80 194 3.0 5.0 0.00 0.00 0.00 88 1018.7
20260902100318 80 255 3.0 7.0 0.00 0.00 0.00 88 1018.6
20260902095338 80 223 3.0 5.0 0.00 0.00 0.00 87 1018.6
20260902094311 80 244 3.0 5.0 0.00 0.00 0.00 87 1018.5
20260902093312 80 210 3.0 7.0 0.00 0.00 0.00 87 1018.6
20260902092310 80 237 2.0 6.0 0.00 0.00 0.00 86 1018.7
20260902091331 81 233 3.0 8.0 0.00 0.00 0.00 86 1018.6
20260902090324 81 219 2.0 6.0 0.00 0.00 0.00 85 1018.5
20260902085318 81 236 3.0 7.0 0.00 0.00 0.00 85 1018.5
20260902084337 81 254 2.0 7.0 0.00 0.00 0.00 85 1018.5
20260902083310 81 217 3.0 5.0 0.00 0.00 0.00 84 1018.5
20260902082331 81 219 3.0 9.0 0.00 0.00 0.00 84 1018.4
20260902081314 81 196 3.0 7.0 0.00 0.00 0.00 84 1018.3
20260902080311 81 229 4.0 8.0 0.00 0.00 0.00 84 1018.4
20260902075334 81 206 4.0 8.0 0.00 0.00 0.00 83 1018.4
20260902074309 81 150 3.0 7.0 0.00 0.00 0.00 83 1018.4
20260902073332 81 161 3.0 5.0 0.00 0.00 0.00 83 1018.4
20260902072328 81 150 2.0 7.0 0.00 0.00 0.00 83 1018.4
20260902071324 82 234 2.0 6.0 0.00 0.00 0.00 83 1018.4
20260902070327 82 164 3.0 5.0 0.00 0.00 0.00 83 1018.6
20260902065319 82 205 3.0 5.0 0.00 0.00 0.00 82 1018.6
20260902064317 82 163 3.0 5.0 0.00 0.00 0.00 82 1018.7
20260902063319 82 194 2.0 6.0 0.00 0.00 0.00 83 1018.7
20260902062316 82 184 3.0 6.0 0.00 0.00 0.00 82 1018.8
20260902061335 82 213 3.0 6.0 0.00 0.00 0.00 83 1018.7
20260902060309 82 95 3.0 9.0 0.00 0.00 0.00 83 1018.7
20260902055328 82 195 3.0 7.0 0.00 0.00 0.00 84 1018.7
20260902054322 83 187 2.0 7.0 0.00 0.00 0.00 84 1018.7
20260902053313 83 146 2.0 5.0 0.00 0.00 0.00 84 1018.7
20260902052325 83 176 2.0 7.0 0.00 0.00 0.00 84 1018.6
20260902051347 83 147 4.0 8.0 0.00 0.00 0.00 83 1018.7
20260902050346 83 210 3.0 7.0 0.00 0.00 0.00 83 1018.6
20260902045337 83 256 3.0 6.0 0.00 0.00 0.00 83 1018.5
20260902044337 84 130 3.0 5.0 0.00 0.00 0.00 83 1018.5
20260902043310 84 184 2.0 7.0 0.00 0.00 0.00 83 1018.5
20260902042327 84 69 3.0 7.0 0.00 0.00 0.00 82 1018.3
20260902041324 84 142 3.0 6.0 0.00 0.00 0.00 82 1018.2
20260902040321 85 161 3.0 6.0 0.00 0.00 0.00 82 1018.2
20260902035314 85 226 4.0 7.0 0.00 0.00 0.00 81 1018.1
20260902034316 85 158 3.0 6.0 0.00 0.00 0.00 81 1018.1
20260902033312 85 184 3.0 7.0 0.00 0.00 0.00 80 1018.0
20260902032309 86 63 4.0 7.0 0.00 0.00 0.00 79 1018.1
20260902031313 86 173 3.0 8.0 0.00 0.00 0.00 79 1018.0
20260902030310 86 205 2.0 8.0 0.00 0.00 0.00 78 1017.9
20260902025311 86 167 3.0 6.0 0.00 0.00 0.00 78 1018.0
20260902024313 86 155 3.0 5.0 0.00 0.00 0.00 77 1018.0
20260902023309 87 122 3.0 7.0 0.00 0.00 0.00 76 1017.9
20260902022331 87 144 3.0 6.0 0.00 0.00 0.00 75 1018.0
20260902021325 87 217 3.0 6.0 0.00 0.00 0.00 75 1017.9
20260902020344 87 187 3.0 5.0 0.00 0.00 0.00 75 1017.8
20260902015324 87 157 3.0 5.0 0.00 0.00 0.00 74 1017.7
20260902014320 87 145 3.0 5.0 0.00 0.00 0.00 74 1017.5
20260902013316 87 136 3.0 6.0 0.00 0.00 0.00 73 1017.5
20260902012320 88 175 2.0 5.0 0.00 0.00 0.00 72 1017.4
20260902011318 88 158 2.0 5.0 0.00 0.00 0.00 72 1017.3
20260902010314 88 153 2.0 4.0 0.00 0.00 0.00 72 1017.2
20260902005316 88 175 3.0 5.0 0.00 0.00 0.00 72 1017.1
20260902004312 89 184 2.0 5.0 0.00 0.00 0.00 71 1017.0
20260902003335 89 155 2.0 4.0 0.00 0.00 0.00 71 1017.0
20260902002356 89 161 2.0 4.0 0.00 0.00 0.00 70 1016.9
20260902001326 90 151 3.0 6.0 0.00 0.00 0.00 70 1017.0
20260902000322 90 150 3.0 5.0 0.00 0.00 0.00 70 1017.1
20260901235323 90 115 3.0 5.0 0.00 0.00 0.00 69 1017.2
20260901234322 91 122 3.0 5.0 0.00 0.00 0.00 68 1017.2
20260901233324 91 163 3.0 5.0 0.00 0.00 0.00 68 1017.2
20260901232320 92 153 3.0 6.0 0.00 0.00 0.00 68 1017.2
20260901231315 92 146 3.0 6.0 0.00 0.00 0.00 67 1017.2
20260901230318 93 157 4.0 6.0 0.00 0.00 0.00 66 1017.3
20260901225314 93 155 3.0 6.0 0.00 0.00 0.00 66 1017.4
20260901224309 94 171 2.0 5.0 0.00 0.00 0.00 66 1017.3
20260901223309 95 169 3.0 5.0 0.00 0.00 0.00 63 1017.2
20260901222325 95 133 3.0 6.0 0.00 0.00 0.00 63 1017.2
20260901221327 96 96 2.0 7.0 0.00 0.00 0.00 63 1017.3
20260901220321 97 34 1.0 4.0 0.00 0.00 0.00 59 1017.3
20260901215317 97 90 1.0 3.0 0.00 0.00 0.00 59 1017.3
20260901214317 98 71 2.0 6.0 0.00 0.00 0.00 59 1017.3
20260901213311 98 76 2.0 6.0 0.00 0.00 0.00 59 1017.2
20260901212313 98 39 2.0 6.0 0.00 0.00 0.00 59 1017.3
20260901211334 98 150 2.0 7.0 0.00 0.00 0.00 56 1017.2
20260901210356 100 169 3.0 6.0 0.00 0.00 0.00 55 1017.2
20260901205345 101 88 4.0 8.0 0.00 0.00 0.00 55 1017.2
20260901204325 101 44 3.0 4.0 0.00 0.00 0.00 55 1017.2
20260901203324 101 44 3.0 6.0 0.00 0.00 0.00 54 1017.3
20260901202316 101 82 2.0 6.0 0.00 0.00 0.00 51 1017.4
20260901201334 100 355 4.0 8.0 0.00 0.00 0.00 54 1017.3
20260901200332 100 90 2.0 5.0 0.00 0.00 0.00 54 1017.5
20260901195324 100 170 2.0 5.0 0.00 0.00 0.00 56 1017.6
20260901194325 99 106 2.0 7.0 0.00 0.00 0.00 55 1017.7
20260901193315 100 56 2.0 5.0 0.00 0.00 0.00 53 1017.9
20260901192332 101 103 2.0 7.0 0.00 0.00 0.00 54 1018.0
20260901191341 100 126 2.0 7.0 0.00 0.00 0.00 56 1018.1
20260901190338 99 171 3.0 7.0 0.00 0.00 0.00 55 1018.2
20260901185334 99 136 3.0 8.0 0.00 0.00 0.00 58 1018.2
20260901184327 98 128 3.0 7.0 0.00 0.00 0.00 58 1018.2
20260901183318 98 57 2.0 6.0 0.00 0.00 0.00 58 1018.3
20260901182318 97 54 2.0 5.0 0.00 0.00 0.00 60 1018.4
20260901181313 98 48 2.0 7.0 0.00 0.00 0.00 57 1018.4
20260901180332 98 88 2.0 6.0 0.00 0.00 0.00 58 1018.4
20260901175323 97 77 1.0 3.0 0.00 0.00 0.00 58 1018.5
20260901174324 98 199 1.0 5.0 0.00 0.00 0.00 55 1018.6
20260901173318 98 360 3.0 6.0 0.00 0.00 0.00 56 1018.6
20260901172314 98 298 2.0 6.0 0.00 0.00 0.00 59 1018.7
20260901171329 97 263 1.0 4.0 0.00 0.00 0.00 59 1018.9
20260901170322 96 208 4.0 7.0 0.00 0.00 0.00 60 1018.9
20260901165318 96 287 3.0 5.0 0.00 0.00 0.00 61 1019.0
20260901164321 96 44 1.0 7.0 0.00 0.00 0.00 62 1019.2
20260901163333 96 333 3.0 7.0 0.00 0.00 0.00 63 1019.2
20260901162310 95 261 2.0 7.0 0.00 0.00 0.00 64 1019.4
20260901161331 95 213 3.0 8.0 0.00 0.00 0.00 63 1019.5
20260901160323 95 265 3.0 6.0 0.00 0.00 0.00 64 1019.6
20260901155341 95 254 1.0 7.0 0.00 0.00 0.00 62 1019.7
20260901154313 95 271 3.0 9.0 0.00 0.00 0.00 62 1019.7
20260901153311 94 348 2.0 7.0 0.00 0.00 0.00 63 1019.8
20260901152325 94 249 4.0 8.0 0.00 0.00 0.00 64 1019.9
20260901151317 93 223 1.0 7.0 0.00 0.00 0.00 68 1020.0
20260901150327 92 284 3.0 7.0 0.00 0.00 0.00 68 1020.0
20260901145331 92 145 4.0 9.0 0.00 0.00 0.00 69 1020.2
20260901144313 91 185 4.0 6.0 0.00 0.00 0.00 70 1020.1
20260901143325 91 244 4.0 8.0 0.00 0.00 0.00 71 1020.2
20260901142322 90 215 4.0 8.0 0.00 0.00 0.00 73 1020.1
20260901141338 89 291 3.0 7.0 0.00 0.00 0.00 74 1020.0
20260901140324 89 240 3.0 7.0 0.00 0.00 0.00 77 1019.9
20260901135321 88 255 2.0 6.0 0.00 0.00 0.00 78 1019.9
20260901134311 87 252 3.0 7.0 0.00 0.00 0.00 78 1019.9
20260901133349 87 265 3.0 8.0 0.00 0.00 0.00 79 1020.0
20260901132317 86 252 3.0 9.0 0.00 0.00 0.00 81 1019.9
20260901131315 85 304 3.0 7.0 0.00 0.00 0.00 82 1020.0
20260901130325 84 294 4.0 9.0 0.00 0.00 0.00 84 1019.9
20260901125342 83 295 4.0 5.0 0.00 0.00 0.00 86 1019.9
20260901124312 82 279 3.0 9.0 0.00 0.00 0.00 87 1020.0
20260901123313 81 262 4.0 7.0 0.00 0.00 0.00 90 1019.9
20260901122311 81 267 3.0 8.0 0.00 0.00 0.00 91 1019.9
20260901121334 80 242 3.0 5.0 0.00 0.00 0.00 91 1019.8
20260901120309 80 240 2.0 5.0 0.00 0.00 0.00 92 1019.7
20260901115334 79 237 3.0 5.0 0.00 0.00 0.00 93 1019.6
20260901114310 79 239 3.0 5.0 0.00 0.00 0.00 93 1019.5
20260901113326 79 257 3.0 4.0 0.00 0.00 0.00 93 1019.4